This demonstration page uses our WeatherBlox Daily Observations layout. Learn more.

Left ArrowRight Arrow

38.80484, -77.04692

Hourly Observations for May 18, 2015

Temp ( °F °C ) Dew Point ( °F °C ) Humidity (%) Winds ( mph kmh ) Pressure ( in mb ) Visibility ( mi km ) Precip ( " mm )
12:52 am 00:52 Mostly Cloudy 75 23.9 70 21.1 84 84 S 6 9 30.13 1020 10 16 N/A
1:52 am 01:52 Partly Cloudy 75 23.9 70 21.1 84 84 S 5 7 30.12 1020 10 16 N/A
2:52 am 02:52 Partly Cloudy 73 22.8 69 20.6 87 87 SSW 5 7 30.11 1020 10 16 N/A
3:52 am 03:52 Partly Cloudy 73 22.8 68 20 84 84 SSW 5 7 30.10 1019 10 16 N/A
4:52 am 04:52 Mostly Cloudy 74 23.3 68 20 82 82 N N/A 30.10 1019 10 16 N/A
5:52 am 05:52 Mostly Cloudy 73 22.8 68 20 84 84 N N/A 30.11 1020 10 16 N/A
6:52 am 06:52 Mostly Cloudy 74 23.3 67 19.4 79 79 N N/A 30.12 1020 10 16 N/A
7:52 am 07:52 Partly Cloudy 78 25.6 68 20 71 71 N N/A 30.13 1020 10 16 N/A
8:52 am 08:52 Partly Cloudy 81 27.2 69 20.6 67 67 N N/A 30.12 1020 10 16 N/A
9:52 am 09:52 Partly Cloudy 85 29.4 68 20 57 57 NNW 8 13 30.11 1020 10 16 N/A
10:52 am 10:52 Mostly Cloudy 88 31.1 68 20 52 52 N 9 15 30.11 1020 10 16 N/A
11:52 am 11:52 Mostly Cloudy 89 31.7 69 20.6 52 52 WNW 7 11 30.11 1020 10 16 N/A
12:52 pm 12:52 Partly Cloudy 89 31.7 68 20 50 50 NE 6 9 30.09 1019 10 16 N/A
1:52 pm 13:52 Partly Cloudy 89 31.7 67 19.4 48 48 ESE 3 6 30.07 1018 10 16 N/A
2:52 pm 14:52 Mostly Cloudy 89 31.7 69 20.6 52 52 S 6 9 30.04 1017 10 16 N/A
3:52 pm 15:52 Mostly Cloudy 88 31.1 70 21.1 55 55 ESE 9 15 30.02 1017 10 16 N/A
4:43 pm 16:43 Mostly Cloudy with Thunderstorms 88 31 70 21 55 55 S 9 15 30.00 1016 10 16 N/A
4:52 pm 16:52 Mostly Cloudy with Thunderstorms 85 29.4 71 21.7 63 63 S 13 20 30.02 1017 10 16 N/A
5:03 pm 17:03 Mostly Cloudy 84 29 68 20 58 58 SSW 13 20 30.03 1017 10 16 N/A
5:17 pm 17:17 Mostly Cloudy with Light Rain 81 27 70 21 70 70 S 13 20 30.03 1017 10 16 N/A
5:23 pm 17:23 Mostly Cloudy with Thunderstorms 81 27 70 21 70 70 SSE 16 26 30.03 1017 5 8 0.02 0.51
5:38 pm 17:38 Mostly Cloudy with Thunderstorms 81 27 72 22 74 74 SE 8 13 30.03 1017 8 13 N/A
5:52 pm 17:52 Mostly Cloudy with Thunderstorms 81 27.2 72 22.2 74 74 SE 7 11 30.01 1016 10 16 0.06 1.52
5:59 pm 17:59 Mostly Cloudy 81 27 72 22 74 74 SSE 3 6 30.00 1016 10 16 N/A
6:52 pm 18:52 Mostly Cloudy 84 28.9 72 22.2 67 67 N N/A 29.99 1016 10 16 N/A
7:52 pm 19:52 Mostly Cloudy 83 28.3 72 22.2 70 70 SE 5 7 30.01 1016 10 16 N/A
8:52 pm 20:52 Mostly Cloudy 81 27.2 70 21.1 69 69 VRB 6 9 30.01 1016 10 16 N/A
9:52 pm 21:52 Mostly Cloudy 79 26.1 72 22.2 79 79 S 3 6 30.03 1017 10 16 N/A
10:52 pm 22:52 Cloudy with Light Rain 77 25 71 21.7 82 82 NE 14 22 30.02 1017 10 16 N/A
11:18 pm 23:18 Cloudy with Thunderstorms 75 24 72 22 89 89 NW 10 17 30.06 1018 8 13 N/A
11:29 pm 23:29 Cloudy with Strong Thunderstorms 73 23 68 20 83 83 WNW 22 35 30.06 1018 3 5 0.04 1.02
11:32 pm 23:32 Cloudy with Strong Thunderstorms 73 23 68 20 83 83 NW 17 28 30.06 1018 3 4 N/A
11:34 pm 23:34 Cloudy with Strong Thunderstorms 73 23 68 20 83 83 NNW 14 22 30.06 1018 2 2 N/A
11:36 pm 23:36 Cloudy with Strong Thunderstorms 73 23 68 20 83 83 NNW 13 20 30.06 1018 1 2 N/A
11:43 pm 23:43 Cloudy with Strong Thunderstorms 72 22 70 21 94 94 N 16 26 30.03 1017 1 2 0.56 14.22
11:49 pm 23:49 Cloudy with Strong Thunderstorms 72 22 70 21 94 94 NNE 10 17 30.03 1017 2 3 0.67 17.02
11:52 pm 23:52 Cloudy with Thunderstorms 72 22.2 69 20.6 91 91 NE 8 13 30.04 1017 3 5 0.68 17.27

Powered by AerisWeather